Regional Weather Roundup
Issued by NWS Sioux Falls, SD

Home | Current Version | Previous Version | Text Only | Print | Product List | Glossary On
Versions: 1 2 3 4 5 6 7 8 9 10 11 12 13 14 15 16 17 18 19 20 21 22 23 24 25 26 27 28 29 30 31 32 33 34 35 36 37 38 39 40 41 42 43 44 45 46 47 48 49 50
765
ASUS43 KFSD 050410
RWRFSD

WEATHER ROUNDUP FOR SE SOUTH DAKOTA/SW MINNESOTA/NW IOWA
NATIONAL WEATHER SERVICE SIOUX FALLS SD
1100 PM CDT WED MAY 04 2016

NOTE: "FAIR" INDICATES FEW OR NO CLOUDS BELOW 12,000 FEET WITH NO
SIGNIFICANT WEATHER AND OR OBSTRUCTIONS TO VISIBILITY.


SDZ038>040-050-052>070-050500-
SOUTHEAST SOUTH DAKOTA

CITY           SKY/WX    TMP DP  RH WIND       PRES   REMARKS
BROOKINGS      CLEAR     51  33  50 CALM      30.02R
CHAMBERLAIN    CLEAR     59  46  61 CALM      30.04S
HURON          CLEAR     53  42  66 CALM      30.01S
MADISON        FAIR      50  32  50 NW5       30.02F
MITCHELL       CLEAR     54  43  66 SW5       30.03R
SIOUX FALLS    CLEAR     49  35  58 CALM      30.02R
WINNER         FAIR      55  41  59 S9        30.05S
YANKTON        CLEAR     52  39  62 W6        30.03R
$$

MNZ071-072-080-081-089-090-097-098-050500-
SOUTHWEST MINNESOTA

CITY           SKY/WX    TMP DP  RH WIND       PRES   REMARKS
FAIRMONT       CLEAR     52  32  46 N5        29.99R
JACKSON        CLEAR     50  34  53 NW9       30.01R
LUVERNE        CLEAR     52  34  50 N3        30.02S
MARSHALL       PTCLDY    50  32  50 W5        30.01S
MONTEVIDEO     CLEAR     52  28  40 CALM      30.01F
PIPESTONE      CLEAR     55  27  33 CALM      30.02S
REDWOOD FALLS  CLEAR     57  25  29 N3        29.99S
TRACY          PTCLDY    56  32  40 NW5       30.01S
WINDOM         CLEAR     48  30  49 CALM      30.00F
WORTHINGTON    CLEAR     51  36  56 NW5       30.02R
$$

IAZ001>003-012>014-020>022-031-032-NEZ013-014-SDZ071-050500-
NORTHWEST IOWA

CITY           SKY/WX    TMP DP  RH WIND       PRES   REMARKS
CHEROKEE       PTCLDY    47  41  78 CALM      30.01R
DENISON        CLEAR     55  39  54 NW3       29.99S
ESTHERVILLE    CLEAR     49  38  65 NW7       29.99R
LE MARS        CLEAR     52  41  66 CALM      30.03R
ORANGE CITY    CLEAR     57  34  41 N6        30.02S
SHELDON        CLEAR     48  36  61 NW5       30.00S
SIOUX CITY     CLEAR     54  38  54 NW3       30.02R
SPENCER        CLEAR     49  38  65 NW8       30.00S
STORM LAKE     CLEAR     52  36  54 N8        30.01R
$$

ABBREVIATIONS USED IN REMARKS
   TC - TEMPERATURE IN CELSIUS
  WCI - WIND CHILL INDEX
   HX - HEAT INDEX
  VSB - VISIBILITY





USA.gov is the U.S. government's official web portal to all federal, state and local government web resources and services.